一网星座-0385星 (ONEWEB-0385 )

导读 | 星芒AI

ONEWEB-0385 是 OneWeb 卫星星座计划中的一颗低轨通信卫星,旨在为全球提供高速互联网服务。该卫星采用模块化设计,搭载先进通信载荷,支持宽带数据传输。作为 OneWeb 扩展其卫星网络的一部分,该卫星于近期成功发射并入网运行,进一步增强其在极地和偏远地区的覆盖能力。其部署有助于实现 OneWeb 的全球数字连接愿景,为航空、海运及地面用户提供稳定通信服务。

基本信息
目录编号:
49311
目录名称:
ONEWEB-0385
国际标识:
2021-090AJ
轨道中心:
EARTH
卫星名称:
一网星座-0385星
卫星全名:
一网星座-0385星 (ONEWEB-0385 )
卫星状态:
在轨 (已飞行1477 天)
发射日期:
2021-10-14 UTC
国别 :
英国 (GB)
星等 :
--
轨道信息
数据来源 国际轨道数据 AOE轨道数据
星历时间 2025-10-30T02:16:26+0800
11小时前
查看轨道信息
2025-10-26T22:00:00+0800
3天前
查看轨道信息
半长轴 7559.912km 7559.912km
偏心率 0.0001713 0.0001928
轨道倾角 87.919° 87.920°
近地点辐角 92.732° 95.280°
升交点赤经 320.398° 321.031°
平近点角 267.401° 282.467°
近地点 1180.481km 1180.319km
远地点 1183.073km 1183.235km
周期 109.027分钟 109.027分钟
每日圈数 13.207716 13.207716
详细信息
平衡模式:
三轴稳定
覆盖范围:
全球
运营商:
一网卫星公司
运营商所在国:
英国
制造商(研发单位):
一网卫星公司
制造商所在国:
英国
使用方式:
暂无
卫星简介
OneWeb卫星网络由648颗重约125公斤的微型卫星组成,运行在1200公里的轨道上。 每颗卫星都能够提供至少每秒8千兆位的吞吐量,以使用其高吞吐量的Ku频段有效载荷为家庭和移动平台提供互联网接入。该卫星仍在工作。
2D轨道图
3D轨道图
轨道高度分析图
轨道倾角分析图
轨道综合分析图
查看轨道综合分析图